Location: Roc des P�zouls
(43.9667°N, 3.5500°E)
Time: 08:49:02
(UTC+00:00)

Cosmos 1833 Rocket - Pass Details

Date: 14 November 2019
Orbit: 832 x 840 km, 71.0° (Epoch: 08 December)

Event Time Altitude Azimuth Distance (km) Brightness Sun altitude
Exits shadow 05:27:42 18° 286° (WNW) 1,945 3.9 -12.9°
Maximum altitude 05:29:33 21° 312° (NW) 1,802 3.9 -12.6°
Drops below altitude 10° 05:33:44 10° 0° (N) 2,453 5.0 -11.9°
Sets 05:36:49 0° 17° (NNE) 3,393 5.9 -11.3°
